Location: Arrien
(42.8963°N, 1.0429°E)
Time: 14:16:52
(UTC+00:00)

Tiangong - Pass Details

Date: 18 February 2026
Orbit: 382 x 391 km, 41.5° (Epoch: 5 March)

Event Time Altitude Azimuth Distance (km) Brightness Sun altitude
Rises 18:48:46 0° 275° (W) 2,257 3.6 -14.9°
Reaches altitude 10° 18:50:53 10° 269° (W) 1,400 2.1 -15.3°
Maximum altitude 18:53:56 47° 194° (SSW) 514 -1.5 -15.8°
Enters shadow 18:55:02 31° 140° (SE) 699 -1.2 -16.0°
